sat.trackr.live / text

‹ back to catalog

STARLINK-4798

NORAD 53858 · 2022-114AS

PAYLOAD ACTIVE UNKNOWN

§ Identity

Operator
Country
US
Launch date
2022-09-19
Launch site
AFETR
Launch vehicle
Mass (kg)
RCS (m²)

Purposes: comms

External: N2YO · Heavens-Above · Gunter

§ Orbital elements

Epoch: 2026-05-25T04:00:03.998880Z

Period
91.80 min
Inclination
53.2171°
Eccentricity
0.0000925
Mean motion
15.68608055 rev/d
Perigee alt
362.3 km
Apogee alt
363.5 km
Semi-major
6,741.0 km
B*
4.4394e-3
RAAN
285.7839°
Arg perigee
43.4304°
Mean anomaly
197.4786°
Rev number
584

§ Raw data

STARLINK-47981 53858U 22114AS  26145.16671295  .00548965  00000+0  44394-2 0  99962 53858  53.2171 285.7839 0000925  43.4304 197.4786 15.68608055  5849

JSON: /api/v1/satellites/53858 · /tle

For live sub-satellite position, see the globe view (requires WebGL).

§ Visibility from observer

Set your observer location to see the next 7 days of passes ≥ 10°. The values pass through the URL so the page stays shareable.

No JS? Fill the form by hand. The geolocation button needs JavaScript.